Time,TemperatureF,DewpointF,PressureIn,WindDirection,WindDirectionDegrees,WindSpeedMPH,WindSpeedGustMPH,Humidity,HourlyPrecipIn,Conditions,Clouds,dailyrainin,SolarRadiationWatts/m^2,SoftwareType,DateUTC
2013-05-19 00:03:00,56.0,53.0,-100.00,SSE,158,10.0,19.0,90,0.00,,,0.00,0.000000,,2013-05-19 04:03:00,
2013-05-19 00:33:00,55.0,54.0,-100.00,SSE,156,8.0,16.0,95,0.00,,,0.00,0.000000,,2013-05-19 04:33:00,
2013-05-19 00:42:00,55.0,54.0,-100.00,SSE,156,8.0,16.0,95,0.00,,,0.00,0.000000,,2013-05-19 04:42:00,
2013-05-19 00:53:00,55.0,54.0,-100.00,SSE,156,8.0,16.0,95,0.00,,,0.00,0.000000,,2013-05-19 04:53:00,
2013-05-19 01:02:00,55.0,54.0,-100.00,SSE,156,8.0,16.0,95,0.00,,,0.00,0.000000,,2013-05-19 05:02:00,
2013-05-19 01:32:00,54.0,53.0,-100.00,SSE,160,9.0,17.0,97,0.00,,,0.00,0.000000,,2013-05-19 05:32:00,
2013-05-19 01:42:00,54.0,53.0,-100.00,SSE,160,9.0,17.0,97,0.00,,,0.00,0.000000,,2013-05-19 05:42:00,
2013-05-19 01:52:00,54.0,53.0,-100.00,SSE,160,9.0,17.0,97,0.00,,,0.00,0.000000,,2013-05-19 05:52:00,
2013-05-19 02:02:00,54.0,53.0,-100.00,SSE,160,9.0,17.0,97,0.00,,,0.00,0.000000,,2013-05-19 06:02:00,
2013-05-19 02:32:00,54.0,54.0,-100.00,SSE,151,8.0,16.0,99,0.00,,,0.00,0.000000,,2013-05-19 06:32:00,
2013-05-19 02:42:00,54.0,54.0,-100.00,SSE,151,8.0,16.0,99,0.00,,,0.00,0.000000,,2013-05-19 06:42:00,
2013-05-19 02:52:00,54.0,54.0,-100.00,SSE,151,8.0,16.0,99,0.00,,,0.00,0.000000,,2013-05-19 06:52:00,
2013-05-19 03:01:00,54.0,54.0,-100.00,SSE,151,8.0,16.0,99,0.00,,,0.00,0.000000,,2013-05-19 07:01:00,
2013-05-19 03:32:00,54.0,54.0,-100.00,SSE,161,8.0,16.0,100,0.00,,,0.00,0.000000,,2013-05-19 07:32:00,
2013-05-19 03:42:00,54.0,54.0,-100.00,SSE,161,8.0,16.0,100,0.00,,,0.00,0.000000,,2013-05-19 07:42:00,
2013-05-19 03:52:00,54.0,54.0,-100.00,SSE,161,8.0,16.0,100,0.00,,,0.00,0.000000,,2013-05-19 07:52:00,
2013-05-19 04:02:00,54.0,54.0,-100.00,SSE,161,8.0,16.0,100,0.00,,,0.00,0.000000,,2013-05-19 08:02:00,
2013-05-19 04:32:00,53.0,53.0,-100.00,SSE,158,9.0,14.0,100,0.00,,,0.00,0.000000,,2013-05-19 08:32:00,
2013-05-19 04:42:00,53.0,53.0,-100.00,SSE,158,9.0,14.0,100,0.00,,,0.00,0.000000,,2013-05-19 08:42:00,
2013-05-19 04:52:00,53.0,53.0,-100.00,SSE,158,9.0,14.0,100,0.00,,,0.00,0.000000,,2013-05-19 08:52:00,
2013-05-19 05:02:00,53.0,53.0,-100.00,SSE,158,9.0,14.0,100,0.00,,,0.00,0.000000,,2013-05-19 09:02:00,
2013-05-19 05:33:00,53.0,53.0,-100.00,SSE,162,8.0,13.0,100,0.00,,,0.00,0.000000,,2013-05-19 09:33:00,
2013-05-19 05:43:00,53.0,53.0,-100.00,SSE,162,8.0,13.0,100,0.00,,,0.00,0.000000,,2013-05-19 09:43:00,
2013-05-19 05:53:00,53.0,53.0,-100.00,SSE,162,8.0,13.0,100,0.00,,,0.00,0.000000,,2013-05-19 09:53:00,
2013-05-19 06:03:00,53.0,53.0,-100.00,SSE,162,8.0,13.0,100,0.00,,,0.00,0.000000,,2013-05-19 10:03:00,
2013-05-19 06:33:00,53.0,53.0,-100.00,SSE,162,7.0,12.0,100,0.00,,,0.00,1.000000,,2013-05-19 10:33:00,
2013-05-19 06:42:00,53.0,53.0,-100.00,SSE,162,7.0,12.0,100,0.00,,,0.00,1.000000,,2013-05-19 10:42:00,
2013-05-19 06:53:00,53.0,53.0,-100.00,SSE,162,7.0,12.0,100,0.00,,,0.00,1.000000,,2013-05-19 10:53:00,
2013-05-19 07:02:00,53.0,53.0,-100.00,SSE,162,7.0,12.0,100,0.00,,,0.00,1.000000,,2013-05-19 11:02:00,
2013-05-19 07:32:00,54.0,54.0,-100.00,SSE,157,6.0,10.0,100,0.00,,,0.00,13.000000,,2013-05-19 11:32:00,
2013-05-19 07:42:00,54.0,54.0,-100.00,SSE,157,6.0,10.0,100,0.00,,,0.00,13.000000,,2013-05-19 11:42:00,
2013-05-19 07:53:00,54.0,54.0,-100.00,SSE,157,6.0,10.0,100,0.00,,,0.00,13.000000,,2013-05-19 11:53:00,
2013-05-19 08:01:00,54.0,54.0,-100.00,SSE,157,6.0,10.0,100,0.00,,,0.00,13.000000,,2013-05-19 12:01:00,
2013-05-19 08:32:00,54.0,54.0,-100.00,SSE,168,7.0,12.0,100,0.00,,,0.00,39.000000,,2013-05-19 12:32:00,
2013-05-19 08:42:00,54.0,54.0,-100.00,SSE,168,7.0,12.0,100,0.00,,,0.00,39.000000,,2013-05-19 12:42:00,
2013-05-19 08:52:00,54.0,54.0,-100.00,SSE,168,7.0,12.0,100,0.00,,,0.00,39.000000,,2013-05-19 12:52:00,
2013-05-19 09:01:00,54.0,54.0,-100.00,SSE,168,7.0,12.0,100,0.00,,,0.00,39.000000,,2013-05-19 13:01:00,
2013-05-19 10:32:00,58.0,58.0,-100.00,SSE,161,8.0,14.0,100,-99.99,,,0.00,177.000000,,2013-05-19 14:32:00,
2013-05-19 10:42:00,58.0,58.0,-100.00,SSE,161,8.0,14.0,100,-99.99,,,0.00,177.000000,,2013-05-19 14:42:00,
2013-05-19 10:52:00,58.0,58.0,-100.00,SSE,161,8.0,14.0,100,-99.99,,,0.00,177.000000,,2013-05-19 14:52:00,
2013-05-19 11:02:00,58.0,58.0,-100.00,SSE,161,8.0,14.0,100,-99.99,,,0.00,177.000000,,2013-05-19 15:02:00,
2013-05-19 11:33:00,61.0,57.0,-100.00,SSE,151,8.0,14.0,88,0.00,,,0.00,280.000000,,2013-05-19 15:33:00,
2013-05-19 11:43:00,61.0,57.0,-100.00,SSE,151,8.0,14.0,88,0.00,,,0.00,280.000000,,2013-05-19 15:43:00,
2013-05-19 11:53:00,61.0,57.0,-100.00,SSE,151,8.0,14.0,88,0.00,,,0.00,280.000000,,2013-05-19 15:53:00,
2013-05-19 12:03:00,61.0,57.0,-100.00,SSE,151,8.0,14.0,88,0.00,,,0.00,280.000000,,2013-05-19 16:03:00,
2013-05-19 12:33:00,62.0,57.0,-100.00,SSE,152,9.0,14.0,85,0.00,,,0.00,290.000000,,2013-05-19 16:33:00,
2013-05-19 12:42:00,62.0,57.0,-100.00,SSE,152,9.0,14.0,85,0.00,,,0.00,290.000000,,2013-05-19 16:42:00,
2013-05-19 12:53:00,62.0,57.0,-100.00,SSE,152,9.0,14.0,85,0.00,,,0.00,290.000000,,2013-05-19 16:53:00,
2013-05-19 13:02:00,62.0,57.0,-100.00,SSE,152,9.0,14.0,85,0.00,,,0.00,290.000000,,2013-05-19 17:02:00,
2013-05-19 13:32:00,62.0,57.0,-100.00,SSE,162,7.0,13.0,84,0.00,,,0.00,211.000000,,2013-05-19 17:32:00,
2013-05-19 13:43:00,62.0,57.0,-100.00,SSE,162,7.0,13.0,84,0.00,,,0.00,211.000000,,2013-05-19 17:43:00,
2013-05-19 13:52:00,62.0,57.0,-100.00,SSE,162,7.0,13.0,84,0.00,,,0.00,211.000000,,2013-05-19 17:52:00,
2013-05-19 14:02:00,62.0,57.0,-100.00,SSE,162,7.0,13.0,84,0.00,,,0.00,211.000000,,2013-05-19 18:02:00,
2013-05-19 14:32:00,64.0,58.0,-100.00,SSE,155,7.0,14.0,81,0.00,,,0.00,226.000000,,2013-05-19 18:32:00,
2013-05-19 14:43:00,64.0,58.0,-100.00,SSE,155,7.0,14.0,81,0.00,,,0.00,226.000000,,2013-05-19 18:43:00,
2013-05-19 14:53:00,64.0,58.0,-100.00,SSE,155,7.0,14.0,81,0.00,,,0.00,226.000000,,2013-05-19 18:53:00,
2013-05-19 15:01:00,64.0,58.0,-100.00,SSE,155,7.0,14.0,81,0.00,,,0.00,226.000000,,2013-05-19 19:01:00,
2013-05-19 15:32:00,63.0,56.0,-100.00,SSW,196,8.0,14.0,79,0.00,,,0.00,177.000000,,2013-05-19 19:32:00,
2013-05-19 15:42:00,63.0,56.0,-100.00,SSW,196,8.0,14.0,79,0.00,,,0.00,177.000000,,2013-05-19 19:42:00,
2013-05-19 15:52:00,63.0,56.0,-100.00,SSW,196,8.0,14.0,79,0.00,,,0.00,177.000000,,2013-05-19 19:52:00,
2013-05-19 16:02:00,63.0,56.0,-100.00,SSW,196,8.0,14.0,79,0.00,,,0.00,177.000000,,2013-05-19 20:02:00,
2013-05-19 16:32:00,63.0,58.0,-100.00,SSE,163,7.0,15.0,84,0.00,,,0.00,107.000000,,2013-05-19 20:32:00,
2013-05-19 16:42:00,63.0,58.0,-100.00,SSE,163,7.0,15.0,84,0.00,,,0.00,107.000000,,2013-05-19 20:42:00,
2013-05-19 16:52:00,63.0,58.0,-100.00,SSE,163,7.0,15.0,84,0.00,,,0.00,107.000000,,2013-05-19 20:52:00,
2013-05-19 17:02:00,63.0,58.0,-100.00,SSE,163,7.0,15.0,84,0.00,,,0.00,107.000000,,2013-05-19 21:02:00,
2013-05-19 17:32:00,61.0,57.0,-100.00,SSE,167,8.0,15.0,88,0.00,,,0.00,92.000000,,2013-05-19 21:32:00,
2013-05-19 17:43:00,61.0,57.0,-100.00,SSE,167,8.0,15.0,88,0.00,,,0.00,92.000000,,2013-05-19 21:43:00,
2013-05-19 17:53:00,61.0,57.0,-100.00,SSE,167,8.0,15.0,88,0.00,,,0.00,92.000000,,2013-05-19 21:53:00,
2013-05-19 18:03:00,61.0,57.0,-100.00,SSE,167,8.0,15.0,88,0.00,,,0.00,92.000000,,2013-05-19 22:03:00,
2013-05-19 18:33:00,60.0,58.0,-100.00,SSE,168,7.0,16.0,92,0.00,,,0.00,66.000000,,2013-05-19 22:33:00,
2013-05-19 18:43:00,60.0,58.0,-100.00,SSE,168,7.0,16.0,92,0.00,,,0.00,66.000000,,2013-05-19 22:43:00,
2013-05-19 18:53:00,60.0,58.0,-100.00,SSE,168,7.0,16.0,92,0.00,,,0.00,66.000000,,2013-05-19 22:53:00,
2013-05-19 19:03:00,60.0,58.0,-100.00,SSE,168,7.0,16.0,92,0.00,,,0.00,66.000000,,2013-05-19 23:03:00,
2013-05-19 19:32:00,59.0,58.0,-100.00,SSE,160,7.0,12.0,97,0.00,,,0.00,29.000000,,2013-05-19 23:32:00,
2013-05-19 19:42:00,59.0,58.0,-100.00,SSE,160,7.0,12.0,97,0.00,,,0.00,29.000000,,2013-05-19 23:42:00,
2013-05-19 19:52:00,59.0,58.0,-100.00,SSE,160,7.0,12.0,97,0.00,,,0.00,29.000000,,2013-05-19 23:52:00,
2013-05-19 20:02:00,59.0,58.0,-100.00,SSE,160,7.0,12.0,97,0.00,,,0.00,29.000000,,2013-05-20 00:02:00,
2013-05-19 20:32:00,58.0,58.0,-100.00,SSE,153,8.0,12.0,100,0.00,,,-99.99,12.000000,,2013-05-20 00:32:00,
2013-05-19 20:42:00,58.0,58.0,-100.00,SSE,153,8.0,12.0,100,0.00,,,-99.99,12.000000,,2013-05-20 00:42:00,
2013-05-19 20:52:00,58.0,58.0,-100.00,SSE,153,8.0,12.0,100,0.00,,,-99.99,12.000000,,2013-05-20 00:52:00,
2013-05-19 21:01:00,58.0,58.0,-100.00,SSE,153,8.0,12.0,100,0.00,,,-99.99,12.000000,,2013-05-20 01:01:00,
2013-05-19 21:32:00,57.0,57.0,-100.00,SSE,161,10.0,17.0,100,0.00,,,0.00,1.000000,,2013-05-20 01:32:00,
2013-05-19 21:42:00,57.0,57.0,-100.00,SSE,161,10.0,17.0,100,0.00,,,0.00,1.000000,,2013-05-20 01:42:00,
2013-05-19 21:52:00,57.0,57.0,-100.00,SSE,161,10.0,17.0,100,0.00,,,0.00,1.000000,,2013-05-20 01:52:00,
2013-05-19 22:02:00,57.0,57.0,-100.00,SSE,161,10.0,17.0,100,0.00,,,0.00,1.000000,,2013-05-20 02:02:00,
2013-05-19 22:32:00,57.0,57.0,-100.00,SSE,166,7.0,15.0,100,0.00,,,0.00,0.000000,,2013-05-20 02:32:00,
2013-05-19 22:42:00,57.0,57.0,-100.00,SSE,166,7.0,15.0,100,0.00,,,0.00,0.000000,,2013-05-20 02:42:00,
2013-05-19 22:52:00,57.0,57.0,-100.00,SSE,166,7.0,15.0,100,0.00,,,0.00,0.000000,,2013-05-20 02:52:00,
2013-05-19 23:02:00,57.0,57.0,-100.00,SSE,166,7.0,15.0,100,0.00,,,0.00,0.000000,,2013-05-20 03:02:00,
2013-05-19 23:33:00,57.0,57.0,-100.00,South,172,8.0,13.0,100,0.00,,,0.00,0.000000,,2013-05-20 03:33:00,
2013-05-19 23:43:00,57.0,57.0,-100.00,South,172,8.0,13.0,100,0.00,,,0.00,0.000000,,2013-05-20 03:43:00,
2013-05-19 23:53:00,57.0,57.0,-100.00,South,172,8.0,13.0,100,0.00,,,0.00,0.000000,,2013-05-20 03:53:00,